sat.trackr.live / text

‹ back to catalog

ONEWEB-0116

NORAD 48046 · 2021-025E

PAYLOAD ACTIVE UNKNOWN

§ Identity

Operator
Country
UK
Launch date
2021-03-25
Launch site
VOSTO
Launch vehicle
Mass (kg)
RCS (m²)

Purposes: comms

External: N2YO · Heavens-Above · Gunter

§ Orbital elements

Epoch: 2026-05-25T04:43:54.280128Z

Period
109.63 min
Inclination
87.8951°
Eccentricity
0.0001829
Mean motion
13.13471286 rev/d
Perigee alt
1,208.4 km
Apogee alt
1,211.1 km
Semi-major
7,587.9 km
B*
3.0358e-4
RAAN
324.7959°
Arg perigee
87.0354°
Mean anomaly
273.0984°
Rev number
25,063

§ Raw data

ONEWEB-01161 48046U 21025E   26145.19715602  .00000124  00000+0  30358-3 0  99992 48046  87.8951 324.7959 0001829  87.0354 273.0984 13.13471286250633

JSON: /api/v1/satellites/48046 · /tle

For live sub-satellite position, see the globe view (requires WebGL).

§ Visibility from observer

Set your observer location to see the next 7 days of passes ≥ 10°. The values pass through the URL so the page stays shareable.

No JS? Fill the form by hand. The geolocation button needs JavaScript.